| time (UTC) | temp F | wind direction | speed MPH | gust MPH | rain 1hr in | rain 24hr in | rain mn in | humidity % | barometer mb |
| 20260504045917 | 41 | 0.0 | 0.0 | 0.00 | 0.00 | 0.00 | 77 | 1017.3 | |
| 20260504044917 | 41 | 0.0 | 0.0 | 0.00 | 0.00 | 0.00 | 76 | 1017.3 | |
| 20260504043917 | 42 | 0.0 | 0.0 | 0.00 | 0.00 | 0.00 | 75 | 1017.2 | |
| 20260504042917 | 42 | 0.0 | 0.0 | 0.00 | 0.00 | 0.00 | 75 | 1017.2 | |
| 20260504041917 | 42 | 0.0 | 0.0 | 0.00 | 0.00 | 0.00 | 75 | 1017.1 | |
| 20260504040917 | 42 | 0.0 | 0.0 | 0.00 | 0.00 | 0.00 | 74 | 1017.1 | |
| 20260504035917 | 42 | 0.0 | 0.0 | 0.00 | 0.00 | 0.00 | 73 | 1017.0 | |
| 20260504034917 | 43 | 0.0 | 0.0 | 0.00 | 0.00 | 0.00 | 72 | 1017.0 | |
| 20260504033937 | 43 | 0.0 | 0.0 | 0.00 | 0.00 | 0.00 | 70 | 1016.9 | |
| 20260504032917 | 43 | 0.0 | 0.0 | 0.00 | 0.00 | 0.00 | 70 | 1016.8 | |
| 20260504031937 | 43 | 0.0 | 0.0 | 0.00 | 0.00 | 0.00 | 70 | 1016.8 | |
| 20260504030917 | 43 | 0.0 | 0.0 | 0.00 | 0.00 | 0.00 | 70 | 1016.9 | |
| 20260504025917 | 43 | 0.0 | 0.0 | 0.00 | 0.00 | 0.00 | 71 | 1016.9 | |
| 20260504024917 | 44 | 0.0 | 0.0 | 0.00 | 0.00 | 0.00 | 69 | 1016.9 | |
| 20260504023917 | 44 | 0.0 | 0.0 | 0.00 | 0.00 | 0.00 | 68 | 1017.0 | |
| 20260504022917 | 44 | 0.0 | 0.0 | 0.00 | 0.00 | 0.00 | 66 | 1016.9 | |
| 20260504021917 | 45 | 0.0 | 0.0 | 0.00 | 0.00 | 0.00 | 65 | 1016.9 | |
| 20260504020917 | 46 | 0.0 | 0.0 | 0.00 | 0.00 | 0.00 | 62 | 1016.8 | |
| 20260504015917 | 46 | 0.0 | 0.0 | 0.00 | 0.00 | 0.00 | 62 | 1016.6 | |
| 20260504014917 | 47 | 269 | 1.0 | 1.0 | 0.00 | 0.00 | 0.00 | 61 | 1016.7 |
| 20260504013917 | 47 | 269 | 0.0 | 2.0 | 0.00 | 0.00 | 0.00 | 58 | 1016.4 |
| 20260504012917 | 48 | 269 | 1.0 | 1.0 | 0.00 | 0.00 | 0.00 | 58 | 1016.0 |
| 20260504011917 | 48 | 269 | 1.0 | 1.0 | 0.00 | 0.00 | 0.00 | 56 | 1015.9 |
| 20260504010917 | 49 | 0.0 | 0.0 | 0.00 | 0.00 | 0.00 | 54 | 1016.0 | |
| 20260504005917 | 50 | 0.0 | 0.0 | 0.00 | 0.00 | 0.00 | 52 | 1015.7 | |
| 20260504004917 | 51 | 269 | 1.0 | 1.0 | 0.00 | 0.00 | 0.00 | 50 | 1015.6 |
| 20260504003917 | 52 | 0.0 | 0.0 | 0.00 | 0.00 | 0.00 | 49 | 1015.5 | |
| 20260504002917 | 53 | 269 | 1.0 | 2.0 | 0.00 | 0.00 | 0.00 | 47 | 1015.4 |
| 20260504001917 | 54 | 0.0 | 0.0 | 0.00 | 0.00 | 0.00 | 45 | 1015.2 | |
| 20260504000916 | 55 | 269 | 1.0 | 1.0 | 0.00 | 0.00 | 0.00 | 42 | 1015.2 |
| 20260503235917 | 57 | 269 | 1.0 | 2.0 | 0.00 | 0.00 | 0.00 | 39 | 1015.3 |
| 20260503234937 | 58 | 269 | 0.0 | 2.0 | 0.00 | 0.00 | 0.00 | 37 | 1015.0 |
| 20260503233917 | 59 | 0.0 | 0.0 | 0.00 | 0.00 | 0.00 | 34 | 1015.0 | |
| 20260503232917 | 59 | 259 | 1.0 | 1.0 | 0.00 | 0.00 | 0.00 | 33 | 1015.1 |
| 20260503231919 | 60 | 278 | 1.0 | 3.0 | 0.00 | 0.00 | 0.00 | 30 | 1015.2 |
| 20260503230917 | 60 | 264 | 1.0 | 2.0 | 0.00 | 0.00 | 0.00 | 31 | 1015.2 |
| 20260503225917 | 60 | 321 | 1.0 | 3.0 | 0.00 | 0.00 | 0.00 | 29 | 1015.2 |
| 20260503224917 | 61 | 325 | 3.0 | 4.0 | 0.00 | 0.00 | 0.00 | 27 | 1015.2 |
| 20260503223917 | 61 | 314 | 1.0 | 2.0 | 0.00 | 0.00 | 0.00 | 28 | 1015.2 |
| 20260503222917 | 61 | 277 | 1.0 | 2.0 | 0.00 | 0.00 | 0.00 | 26 | 1015.4 |
| 20260503221937 | 61 | 321 | 4.0 | 5.0 | 0.00 | 0.00 | 0.00 | 25 | 1015.3 |
| 20260503220917 | 62 | 261 | 3.0 | 5.0 | 0.00 | 0.00 | 0.00 | 25 | 1015.5 |
| 20260503215937 | 62 | 317 | 3.0 | 9.0 | 0.00 | 0.00 | 0.00 | 24 | 1015.5 |
| 20260503214917 | 62 | 243 | 5.0 | 9.0 | 0.00 | 0.00 | 0.00 | 25 | 1015.6 |
| 20260503213916 | 62 | 292 | 2.0 | 3.0 | 0.00 | 0.00 | 0.00 | 27 | 1015.7 |
| 20260503212917 | 62 | 340 | 4.0 | 6.0 | 0.00 | 0.00 | 0.00 | 27 | 1015.8 |
| 20260503211917 | 62 | 261 | 2.0 | 3.0 | 0.00 | 0.00 | 0.00 | 27 | 1015.8 |
| 20260503210917 | 62 | 244 | 6.0 | 10.0 | 0.00 | 0.00 | 0.00 | 29 | 1015.8 |
| 20260503205917 | 62 | 330 | 4.0 | 10.0 | 0.00 | 0.00 | 0.00 | 25 | 1015.8 |
| 20260503204917 | 63 | 243 | 2.0 | 5.0 | 0.00 | 0.00 | 0.00 | 28 | 1016.1 |
| 20260503203917 | 63 | 244 | 5.0 | 12.0 | 0.00 | 0.00 | 0.00 | 29 | 1016.1 |
| 20260503202917 | 63 | 254 | 2.0 | 8.0 | 0.00 | 0.00 | 0.00 | 31 | 1016.3 |
| 20260503201917 | 62 | 327 | 1.0 | 8.0 | 0.00 | 0.00 | 0.00 | 28 | 1016.5 |
| 20260503200917 | 62 | 358 | 5.0 | 7.0 | 0.00 | 0.00 | 0.00 | 30 | 1016.7 |
| 20260503195917 | 62 | 323 | 3.0 | 5.0 | 0.00 | 0.00 | 0.00 | 29 | 1016.8 |
| 20260503194937 | 62 | 251 | 5.0 | 11.0 | 0.00 | 0.00 | 0.00 | 30 | 1016.9 |
| 20260503193917 | 62 | 298 | 1.0 | 8.0 | 0.00 | 0.00 | 0.00 | 31 | 1016.9 |
| 20260503192916 | 61 | 247 | 2.0 | 4.0 | 0.00 | 0.00 | 0.00 | 29 | 1017.2 |
| 20260503191937 | 61 | 223 | 4.0 | 7.0 | 0.00 | 0.00 | 0.00 | 32 | 1017.3 |
| 20260503190917 | 61 | 296 | 2.0 | 4.0 | 0.00 | 0.00 | 0.00 | 31 | 1017.6 |
| 20260503185937 | 60 | 244 | 4.0 | 8.0 | 0.00 | 0.00 | 0.00 | 32 | 1017.7 |
| 20260503184917 | 60 | 307 | 5.0 | 12.0 | 0.00 | 0.00 | 0.00 | 33 | 1017.8 |
| 20260503183917 | 60 | 279 | 3.0 | 6.0 | 0.00 | 0.00 | 0.00 | 31 | 1017.8 |
| 20260503182917 | 60 | 109 | 2.0 | 4.0 | 0.00 | 0.00 | 0.00 | 31 | 1018.0 |
| 20260503181917 | 60 | 99 | 2.0 | 4.0 | 0.00 | 0.00 | 0.00 | 34 | 1018.3 |
| 20260503180937 | 59 | 220 | 3.0 | 5.0 | 0.00 | 0.00 | 0.00 | 35 | 1018.5 |
| 20260503175938 | 58 | 211 | 5.0 | 7.0 | 0.00 | 0.00 | 0.00 | 36 | 1018.5 |
| 20260503174917 | 58 | 211 | 5.0 | 7.0 | 0.00 | 0.00 | 0.00 | 35 | 1018.6 |
| 20260503173917 | 57 | 221 | 4.0 | 9.0 | 0.00 | 0.00 | 0.00 | 35 | 1018.7 |
| 20260503172917 | 57 | 250 | 3.0 | 7.0 | 0.00 | 0.00 | 0.00 | 37 | 1018.6 |
| 20260503171916 | 56 | 275 | 6.0 | 8.0 | 0.00 | 0.00 | 0.00 | 37 | 1018.9 |
| 20260503170917 | 56 | 346 | 4.0 | 7.0 | 0.00 | 0.00 | 0.00 | 36 | 1019.1 |
| 20260503150937 | 50 | 92 | 3.0 | 8.0 | 0.00 | 0.00 | 0.00 | 41 | 1020.2 |
| 20260503130916 | 45 | 0 | 4.0 | 6.0 | 0.00 | 0.00 | 0.00 | 58 | 1020.3 |
| 20260503080937 | 36 | 0.0 | 0.0 | 0.00 | 0.00 | 0.00 | 83 | 1017.4 | |
| 20260503072937 | 36 | 293 | 1.0 | 2.0 | 0.00 | 0.00 | 0.00 | 85 | 1017.0 |
| 20260503071917 | 36 | 0.0 | 0.0 | 0.00 | 0.00 | 0.00 | 85 | 1016.8 | |
| 20260503070916 | 36 | 0.0 | 0.0 | 0.00 | 0.00 | 0.00 | 85 | 1016.8 |